Погода в Новом Орлеане

США     29°56′53″N   90°04′13″W
В апреле 2022 года жителям России запретили посещать сайт meteo.paraplan.net по решению Генеральной прокуратуры. Аудитория сайта уменьшилась в 10 раз. Владельцы сайта не видят смысла в поддержке погодного сервера в таких условиях. Сайт будет закрыт в октябре.
темп.,
°C
ветер,
м/с
пор.,
м/с
влажн.,
%
обл.,
%
осадки,
мм/ч
давл.,
гПа
погр.,
м
25 сентября, вс
вс2501:00+26юв236412 0.0 1014100
04:00+25юв12720 0.0 101471
07:00+25ю1277100 0.0 101468
10:00+29ссз1159100 0.0 1015680
13:00+32ссз3346100 0.0 10141168
16:00+32сз2245100 0.0 1012812
19:00+30юз115297 0.0 101138
22:00+28ююз236694 0.0 1013152
26 сентября, пн
пн2601:00+27юз3574100 0.0 1012173
04:00+26зюз357497 0.1 1012151
07:00+26сз237793 0.1 1013132
10:00+29сз2361100 0.0 1014537
13:00+31сз3451100 0.0 1013687
16:00+32зсз2443100 0.0 1011948
19:00+30с695389 0.0 1012666
22:00+27ссв6114759 0.0 1015565
27 сентября, вт
вт2701:00+24св5124913 0.0 1015437
04:00+23св511485 0.0 1015380
07:00+21св611494 0.0 1016366
10:00+25св69394 0.0 1017513
13:00+29св67250 0.0 10171500
16:00+30св57230 0.0 10151769
19:00+26ссв610330 0.0 1015714
22:00+23св613410 0.0 1017582
28 сентября, ср
ср2801:00+21св715420 0.0 1016550
04:00+20св71544100 0.0 1015494
07:00+19ссв7144797 0.0 1016477
10:00+23св81435100 0.0 1016624
13:00+28св9132499 0.0 10151382
16:00+29ссв81427100 0.0 10141762
19:00+26ссв81633100 0.0 10131538
22:00+24св81637100 0.0 10141352
29 сентября, чт
чт2901:00+23св81638100 0.0 10141267
04:00+21ссв81644100 0.0 1013976
07:00+20ссв8154691 0.0 1013784
10:00+22с101444100 0.0 1012789
13:00+26ссв10143961 0.0 10111302
16:00+26ссв11164190 0.0 10101382
19:00+22с9174756 0.0 10101360
22:00+21с91647100 0.0 10091131